| time (UTC) | temp F | wind direction | speed knots | gust knots | rain 1hr in | rain 24hr in | rain mn in | humidity % | barometer mb |
| 20260504170103 | 72 | 30 | 2.6 | 0.0 | 0.00 | 0.00 | 0.00 | 37 | 1011.0 |
| 20260504160212 | 73 | 20 | 4.3 | 0.0 | 0.00 | 0.00 | 0.00 | 35 | 1012.0 |
| 20260504150103 | 73 | 90 | 4.3 | 0.0 | 0.00 | 0.00 | 0.00 | 35 | 1012.0 |
| 20260504130211 | 72 | 30 | 5.2 | 0.0 | 0.00 | 0.00 | 0.00 | 37 | 1013.0 |
| 20260504120104 | 72 | 0 | 1.7 | 0.0 | 0.00 | 0.00 | 0.00 | 37 | 1013.0 |
| 20260504110211 | 68 | 320 | 2.6 | 0.0 | 0.00 | 0.00 | 0.00 | 42 | 1014.0 |
| 20260504100103 | 66 | 310 | 4.3 | 0.0 | 0.00 | 0.00 | 0.00 | 42 | 1014.0 |
| 20260504081852 | 63 | 320 | 4.3 | 0.0 | 0.00 | 0.00 | 0.00 | 48 | |
| 20260504080211 | 61 | 20 | 2.6 | 0.0 | 0.00 | 0.00 | 0.00 | 51 | 1014.0 |
| 20260504070104 | 57 | 320 | 5.2 | 0.0 | 0.00 | 0.00 | 0.00 | 58 | 1014.0 |
| 20260504060211 | 55 | 310 | 4.3 | 0.0 | 0.00 | 0.00 | 0.00 | 62 | 1013.0 |
| 20260504050211 | 52 | 10 | 5.2 | 0.0 | 0.00 | 0.00 | 0.00 | 66 | 1013.0 |
| 20260504043103 | 50 | 0 | 0.9 | 0.0 | 0.00 | 0.00 | 0.00 | 71 | 1013.0 |
| 20260504041854 | 52 | 320 | 1.7 | 0.0 | 0.00 | 0.00 | 0.00 | 62 | |
| 20260504040103 | 52 | 0 | 0.9 | 0.0 | 0.00 | 0.00 | 0.00 | 66 | 1013.0 |
| 20260504033209 | 54 | 0 | 1.7 | 0.0 | 0.00 | 0.00 | 0.00 | 62 | 1013.0 |
| 20260504031851 | 54 | 160 | 4.3 | 0.0 | 0.00 | 0.00 | 0.00 | 58 | |
| 20260504023103 | 54 | 100 | 6.1 | 0.0 | 0.00 | 0.00 | 0.00 | 62 | 1013.0 |
| 20260504021853 | 52 | 60 | 1.7 | 0.0 | 0.00 | 0.00 | 0.00 | 66 | |
| 20260504020212 | 54 | 60 | 2.6 | 0.0 | 0.00 | 0.00 | 0.00 | 62 | 1013.0 |
| 20260504013103 | 54 | 50 | 4.3 | 0.0 | 0.00 | 0.00 | 0.00 | 62 | 1013.0 |
| 20260504011851 | 55 | 40 | 4.3 | 0.0 | 0.00 | 0.00 | 0.00 | 58 | |
| 20260504003103 | 57 | 60 | 6.1 | 0.0 | 0.00 | 0.00 | 0.00 | 54 | 1012.0 |
| 20260504001852 | 57 | 40 | 6.1 | 0.0 | 0.00 | 0.00 | 0.00 | 54 | |
| 20260504000212 | 57 | 40 | 5.2 | 0.0 | 0.00 | 0.00 | 0.00 | 54 | 1013.0 |
| 20260503233102 | 59 | 50 | 6.1 | 0.0 | 0.00 | 0.00 | 0.00 | 51 | 1012.0 |
| 20260503231854 | 59 | 110 | 6.1 | 0.0 | 0.00 | 0.00 | 0.00 | 51 | |
| 20260503230103 | 61 | 110 | 6.1 | 0.0 | 0.00 | 0.00 | 0.00 | 48 | 1012.0 |
| 20260503223103 | 63 | 100 | 5.2 | 0.0 | 0.00 | 0.00 | 0.00 | 45 | 1012.0 |
| 20260503221853 | 63 | 130 | 4.3 | 0.0 | 0.00 | 0.00 | 0.00 | 42 | |
| 20260503220103 | 64 | 140 | 4.3 | 0.0 | 0.00 | 0.00 | 0.00 | 42 | 1012.0 |
| 20260503213102 | 64 | 170 | 7.8 | 0.0 | 0.00 | 0.00 | 0.00 | 42 | 1012.0 |
| 20260503211853 | 64 | 160 | 7.8 | 0.0 | 0.00 | 0.00 | 0.00 | 42 | |
| 20260503210104 | 66 | 160 | 7.8 | 0.0 | 0.00 | 0.00 | 0.00 | 39 | 1012.0 |
| 20260503203103 | 66 | 150 | 7.0 | 0.0 | 0.00 | 0.00 | 0.00 | 39 | 1012.0 |
| 20260503201851 | 66 | 130 | 6.1 | 0.0 | 0.00 | 0.00 | 0.00 | 37 | |
| 20260503193102 | 68 | 120 | 7.0 | 0.0 | 0.00 | 0.00 | 0.00 | 34 | 1012.0 |
| 20260503191850 | 68 | 120 | 7.8 | 0.0 | 0.00 | 0.00 | 0.00 | 34 | |
| 20260503190210 | 68 | 120 | 7.8 | 0.0 | 0.00 | 0.00 | 0.00 | 34 | 1012.0 |
| 20260503183103 | 70 | 120 | 8.7 | 0.0 | 0.00 | 0.00 | 0.00 | 32 | 1012.0 |
| 20260503181853 | 70 | 120 | 7.8 | 0.0 | 0.00 | 0.00 | 0.00 | 32 | |
| 20260503173103 | 75 | 130 | 8.7 | 0.0 | 0.00 | 0.00 | 0.00 | 27 | 1012.0 |
| 20260503171851 | 75 | 120 | 10.4 | 0.0 | 0.00 | 0.00 | 0.00 | 27 |